| time (UTC) | temp C | wind direction | speed KPH | gust KPH | rain 1hr cm | rain 24hr cm | rain mn cm | humidity % | barometer mb |
| 20260508083442 | 13 | 88 | 4.8 | 11.3 | 0.00 | 0.00 | 0.00 | 100 | 1009.7 |
| 20260508075242 | 13 | 117 | 4.8 | 11.3 | 0.00 | 0.00 | 0.00 | 2 | 1009.7 |
| 20260508071043 | 12 | 98 | 4.8 | 9.7 | 0.00 | 0.00 | 0.00 | 6 | 1009.7 |
| 20260508062842 | 10 | 153 | 3.2 | 12.9 | 0.00 | 0.00 | 0.00 | 11 | 1009.4 |
| 20260508054642 | 10 | 94 | 4.8 | 11.3 | 0.00 | 0.00 | 0.00 | 13 | 1008.7 |
| 20260508050442 | 10 | 146 | 3.2 | 6.4 | 0.00 | 0.00 | 0.00 | 20 | 1008.7 |
| 20260508042242 | 7 | 175 | 3.2 | 4.8 | 0.00 | 0.00 | 0.00 | 31 | 1008.4 |
| 20260508034042 | 5 | 171 | 3.2 | 3.2 | 0.00 | 0.00 | 0.00 | 39 | 1007.7 |
| 20260508025842 | 5 | 157 | 4.8 | 4.8 | 0.00 | 0.00 | 0.00 | 39 | 1007.7 |
| 20260508021643 | 5 | 164 | 3.2 | 4.8 | 0.00 | 0.00 | 0.00 | 37 | 1006.8 |
| 20260508013442 | 5 | 157 | 4.8 | 8.0 | 0.00 | 0.00 | 0.00 | 37 | 1005.8 |
| 20260508005242 | 5 | 176 | 3.2 | 4.8 | 0.00 | 0.00 | 0.00 | 33 | 1005.7 |
| 20260508001042 | 5 | 157 | 4.8 | 4.8 | 0.00 | 0.00 | 0.00 | 33 | 1004.9 |
| 20260507232842 | 5 | 169 | 4.8 | 4.8 | 0.00 | 0.00 | 0.00 | 32 | 1004.7 |
| 20260507224642 | 6 | 162 | 4.8 | 4.8 | 0.00 | 0.00 | 0.00 | 27 | 1004.7 |
| 20260507220442 | 6 | 169 | 3.2 | 4.8 | 0.00 | 0.00 | 0.00 | 19 | 1004.2 |
| 20260507212242 | 7 | 181 | 3.2 | 4.8 | 0.00 | 0.00 | 0.00 | 18 | 1003.7 |
| 20260507204042 | 7 | 200 | 4.8 | 4.8 | 0.00 | 0.00 | 0.00 | 11 | 1003.7 |
| 20260507195842 | 8 | 174 | 3.2 | 4.8 | 0.00 | 0.00 | 0.00 | 7 | 1002.8 |
| 20260507191642 | 9 | 157 | 3.2 | 4.8 | 0.00 | 0.00 | 0.00 | 3 | 1002.7 |
| 20260507183442 | 10 | 133 | 3.2 | 4.8 | 0.00 | 0.00 | 0.00 | 1 | 1001.7 |
| 20260507175242 | 10 | 83 | 3.2 | 6.4 | 0.00 | 0.00 | 0.00 | 100 | 1001.7 |
| 20260507171042 | 12 | 72 | 3.2 | 6.4 | 0.00 | 0.00 | 0.00 | 100 | 1000.7 |
| 20260507162842 | 13 | 108 | 3.2 | 9.7 | 0.00 | 0.00 | 0.00 | 100 | 1000.7 |
| 20260507154643 | 14 | 86 | 4.8 | 11.3 | 0.00 | 0.00 | 0.00 | 100 | 1000.1 |
| 20260507150442 | 13 | 65 | 6.4 | 12.9 | 0.00 | 0.00 | 0.00 | 999.7 | |
| 20260507142242 | 15 | 149 | 4.8 | 9.7 | 0.00 | 0.00 | 0.00 | 999.7 | |
| 20260507134042 | 14 | 147 | 6.4 | 9.7 | 0.00 | 0.00 | 0.00 | 999.7 | |
| 20260507125842 | 17 | 319 | 4.8 | 9.7 | 0.00 | 0.00 | 0.00 | 999.4 | |
| 20260507121642 | 17 | 314 | 4.8 | 11.3 | 0.00 | 0.00 | 0.00 | 998.8 | |
| 20260507113443 | 17 | 348 | 4.8 | 9.7 | 0.00 | 0.00 | 0.00 | 998.7 | |
| 20260507105243 | 20 | 165 | 3.2 | 6.4 | 0.00 | 0.00 | 0.00 | 998.8 | |
| 20260507101042 | 29 | 163 | 1.6 | 3.2 | 0.00 | 0.00 | 0.00 | 998.8 | |
| 20260507092843 | 27 | 167 | 1.6 | 4.8 | 0.00 | 0.00 | 0.00 | 998.7 |